Location: Laguna de la Cañada del Gallo
(40.3974°N, 5.2096°W)
Time: 07:13:24
(UTC+00:00)

SL-4 R/B - Visible Passes

Search period start: 22 July 2024 00:00
Search period end: 01 August 2024 00:00
Orbit: 411 x 596 km, 51.6° (Epoch: 21 July)

Date Brightness Start Highest point End Pass type
(mag) Time Alt. Az. Time Alt. Az. Time Alt. Az.
22 Jul 3.5 03:32:54 17° S 03:34:37 23° SE 03:37:32 10° E visible
23 Jul 3.3 03:13:22 22° SSE 03:14:12 24° SE 03:17:12 10° ENE visible
24 Jul 3.3 02:53:45 25° SE 02:53:45 25° SE 02:56:48 10° ENE visible
24 Jul 2.4 04:28:37 10° WSW 04:32:13 44° NNW 04:35:39 10° NE visible
25 Jul 3.5 02:34:02 24° ESE 02:34:02 24° ESE 02:36:22 10° ENE visible
25 Jul 2.5 04:08:43 14° W 04:11:44 43° NNW 04:15:10 10° NE visible
26 Jul 3.8 02:14:14 21° E 02:14:14 21° E 02:15:54 10° ENE visible
26 Jul 2.6 03:48:54 19° W 03:51:13 42° NNW 03:54:40 10° NE visible
27 Jul 4.2 01:54:21 16° E 01:54:21 16° E 01:55:24 10° ENE visible
27 Jul 2.6 03:29:01 26° W 03:30:39 41° NNW 03:34:07 10° NE visible
28 Jul 4.6 01:34:24 13° ENE 01:34:24 13° ENE 01:34:51 10° ENE visible
28 Jul 2.7 03:09:04 33° WNW 03:10:03 40° NNW 03:13:31 10° NE visible
29 Jul 2.7 02:49:02 38° NW 02:49:25 39° NNW 02:52:54 10° NE visible
29 Jul 4.3 04:26:32 10° NW 04:28:47 15° N 04:30:58 10° NNE visible
30 Jul 3.0 02:28:57 38° NNW 02:28:57 38° NNW 02:32:14 10° NE visible
30 Jul 4.3 04:05:51 10° NW 04:08:07 15° N 04:10:20 10° NNE visible
31 Jul 3.4 02:08:48 33° N 02:08:48 33° N 02:11:33 10° NE visible
31 Jul 4.4 03:45:07 10° NW 03:47:26 15° N 03:49:40 10° NNE visible
